Powrót do katalogu

STARLINK-30829

AktywnyŁącznośćVLEO
NORAD 58158·PAYLOAD·🇺🇸 United States

Wystrzelony Oct 29, 2023 z Vandenberg Space Force Base

Loading…

Następne Przeloty (najbliższe 24 godziny)

TLE

ŚwieżeSource: CelesTrak SupGP

Epoka: Sep 14, 2026, 22:10 UTC

1 58158C 23166J   26257.92409722  .00045953  00000+0  14779-2 0  2574
2 58158  53.1587  59.5364 0001300  81.2782  55.6466 15.31674758    12

Śledź STARLINK-30829 w czasie rzeczywistym z AllMySat

Download on the App Store